[[{"header":{"parameterUnit":"m.s-1","parameterCategory":1,"la1":30.2991,"la2":30.254,"lo1":-89.0895,"lo2":-89.0444,"dy":0.0017,"dx":0.0017,"nx":28,"ny":28,"refTime":"2023-08-18T21:00:00:Z","depth":0,"parameterNumber":2,"parameterNumberName":"U-component_of_WINDS"},"data":[0,0,0,0,0,0,0,0,0,0,0,0,0,0,0,0,0,0,0,0,0,0,0,0,0,0,0,0,0,0,0,0,0,0,0,0,0,0,0,0,0,0,0,0,0,0,0,0,0,0,0,0,0,0,0,0,0,0,1.3843,1.3844,0,1.397,1.3972,1.3973,1.3988,1.3987,1.3985,1.3984,1.4119,1.4124,1.4129,0,0,0,0,0,0,0,0,0,0,0,0,0,1.3614,1.3618,1.3843,1.3844,1.3846,1.397,1.3972,1.3974,1.3988,1.3987,1.3985,1.3984,1.4118,1.4123,1.4129,0,0,0,0,0,0,0,0,0,0,0,0,0,1.3725,1.362,1.3842,1.3868,1.3872,1.397,1.3972,1.3974,1.3989,1.3987,1.3985,1.3983,1.4116,1.4123,1.413,1.4213,0,0,1.4152,1.4155,0,0,0,0,0,0,0,0,1.3719,1.3733,1.3863,1.3866,1.3871,1.3961,1.3941,1.4054,1.3989,1.3944,1.3984,1.3982,1.4068,1.4079,1.4108,1.4219,1.4225,1.4152,1.4157,1.416,1.4162,0,0,0,0,0,0,0,1.3711,1.3728,1.3893,1.3865,1.3869,1.3874,1.3888,1.3962,1.4016,1.3948,1.3949,1.3964,1.407,1.4101,1.4111,1.4227,1.4152,1.4159,1.4163,1.4166,1.441,1.4412,0,0,0,0,0,0,1.3698,1.3721,1.3889,1.3897,1.3788,1.388,1.3895,1.3934,1.4015,1.4025,1.3966,1.3964,1.4089,1.4103,1.4116,1.4216,1.416,1.4166,1.4171,1.4408,1.441,1.4413,0,0,0,0,0,0,1.3693,1.3713,1.3884,1.381,1.3832,1.3886,1.393,1.3938,1.3968,1.4028,1.4038,1.3987,1.4088,1.4106,1.4188,1.4221,1.417,1.4176,1.4405,1.4409,1.4412,1.4418,0,0,0,0,0,0,1.3686,1.3711,1.3742,1.381,1.3836,1.3953,1.3932,1.3942,1.398,1.3979,1.4051,1.4061,1.4088,1.4177,1.4195,1.423,1.4182,1.4402,1.4407,1.4411,1.4415,1.4421,1.4426,0,0,0,0,0,1.3678,1.3741,1.3744,1.3764,1.3876,1.3955,1.3969,1.3999,1.3983,1.4015,1.4053,1.4058,1.4215,1.4185,1.4205,1.4243,1.44,1.4406,1.441,1.4413,1.442,1.4426,0,0,0,0,0,0,1.3677,1.375,1.3754,1.384,1.3891,1.3957,1.3999,1.4006,1.4064,1.4061,1.4096,1.4112,1.4192,1.4226,1.4192,1.4326,1.4306,1.4315,1.4301,1.4308,1.4314,1.4303,1.4188,0,0,0,0,0,1.3686,1.3743,1.3805,1.3875,1.39,1.3945,1.398,1.3998,1.4053,1.4075,1.4119,1.4173,1.4234,1.4273,1.4333,1.4421,1.4436,1.4457,1.4462,1.4467,1.4474,1.452,1.453,1.4429,1.4429,1.4429,0,0,1.3707,1.3754,1.3788,1.3875,1.3917,1.3975,1.3963,1.4026,1.4069,1.4085,1.4163,1.4198,1.426,1.4345,1.4384,1.4376,1.4505,1.4473,1.4476,1.4481,1.4526,1.4536,1.4544,1.4432,1.4432,1.4431,0,0,1.3774,1.3816,1.3877,1.3919,1.3981,1.401,1.4025,1.409,1.4112,1.4192,1.4204,1.4257,1.4362,1.4405,1.4441,1.4522,1.4528,1.4541,1.457,1.4615,1.4623,1.463,1.4657,1.4667,1.4548,1.4548,1.4548,0,1.3792,1.388,1.3909,1.397,1.4008,1.4023,1.4085,1.4124,1.4203,1.4229,1.4218,1.4348,1.4392,1.4485,1.4505,1.4534,1.4551,1.4532,1.4619,1.4627,1.4634,1.466,1.4671,1.4549,1.4549,1.4549,1.4549,0,1.3898,1.3958,1.4001,1.4074,1.4117,1.4179,1.4218,1.4258,1.4272,1.4302,1.4382,1.4434,1.4504,1.4528,1.4544,1.4623,1.4616,1.4612,1.4592,1.4644,1.4669,1.468,1.455,1.455,1.455,1.455,0,0,1.3967,1.4055,1.407,1.4102,1.4171,1.4219,1.4282,1.4347,1.438,1.4434,1.4487,1.4575,1.457,1.4611,1.4632,1.4672,1.473,1.4663,1.4665,1.4672,1.4819,1.482,1.4831,1.4735,1.4737,1.4739,1.4813,0,1.404,1.415,1.4177,1.4272,1.4327,1.4342,1.4396,1.4444,1.4474,1.4527,1.4561,1.4621,1.4612,1.4636,1.4677,1.4714,1.476,1.471,1.4784,1.4787,1.4766,1.4845,1.4847,1.4914,1.4823,1.4825,1.4827,0,1.414,1.4194,1.4292,1.4352,1.4377,1.4425,1.4486,1.4536,1.4592,1.4611,1.4655,1.4671,1.4737,1.4714,1.4805,1.477,1.4802,1.4825,1.4828,1.4835,1.4808,1.4852,1.4937,1.4946,1.4843,1.4841,1.484,0,1.4178,1.4275,1.4346,1.4374,1.4447,1.448,1.4512,1.4565,1.4602,1.4657,1.4681,1.4744,1.4777,1.4825,1.4858,1.4839,1.4945,1.4926,1.4963,1.4962,1.4983,1.4981,1.5073,1.5007,1.5007,1.5007,1.5007,0,1.4255,1.4315,1.4364,1.4407,1.4474,1.4506,1.4571,1.4604,1.4651,1.4701,1.4719,1.4766,1.4807,1.486,1.4886,1.4956,1.4972,1.4989,1.4995,1.4986,1.4984,1.5007,1.5002,1.501,1.5009,1.5008,1.5008,0,1.4308,1.4344,1.4422,1.4483,1.45,1.4546,1.4599,1.4642,1.4673,1.4736,1.4753,1.4801,1.4864,1.4901,1.4982,1.4999,1.5076,1.5081,1.5056,1.5059,1.5092,1.5088,1.52,1.5216,1.5142,1.5142,1.5143,0,1.4355,1.44,1.4466,1.45,1.4532,1.4587,1.4624,1.4658,1.4696,1.4761,1.4796,1.486,1.4912,1.5012,1.5054,1.5115,1.5121,1.5156,1.513,1.5119,1.5119,1.5115,1.5119,1.516,1.5161,1.5161,1.5162,0,1.4432,1.4447,1.45,1.4558,1.4602,1.465,1.4698,1.4726,1.4767,1.4809,1.4873,1.4913,1.4993,1.5056,1.512,1.5154,1.5165,1.5169,1.5181,1.5172,1.5155,1.5162,1.5066,1.5166,1.5166,1.5166,1.5165,1.5165,1.4482,1.4522,1.4574,1.4632,1.4671,1.4715,1.4758,1.4793,1.4846,1.4912,1.4929,1.4995,1.5049,1.5136,1.5171,1.5223,1.5218,1.5235,1.5239,1.5242,1.5241,1.5147,1.5235,1.5235,1.5235,1.5235,1.5235,0,1.4558,1.4592,1.4645,1.471,1.4756,1.4761,1.4814,1.4851,1.4909,1.4957,1.5007,1.508,1.514,1.5187,1.5249,1.5282,1.5288,1.5297,1.5294,1.5301,1.5244,1.5227,1.529,1.529,1.529,1.529,1.529,1.529,1.4603,1.4671,1.4692,1.4779,1.4813,1.4877,1.4906,1.4947,1.4985,1.5064,1.5114,1.5143,1.5191,1.5256,1.5312,1.5324,1.5345,1.5353,1.5366,1.5311,1.5305,1.53,1.5283,1.5358,1.5358,1.5418,1.5419,1.5419]},{"header":{"parameterUnit":"m.s-1","parameterCategory":1,"la1":30.2991,"la2":30.254,"lo1":-89.0895,"lo2":-89.0444,"dy":0.0017,"dx":0.0017,"nx":28,"ny":28,"refTime":"2023-08-18T21:00:00:Z","depth":0,"parameterNumber":3,"parameterNumberName":"V-component_of_WINDS"},"data":[0,0,0,0,0,0,0,0,0,0,0,0,0,0,0,0,0,0,0,0,0,0,0,0,0,0,0,0,0,0,0,0,0,0,0,0,0,0,0,0,0,0,0,0,0,0,0,0,0,0,0,0,0,0,0,0,0,0,4.7222,4.7222,0,4.7187,4.7186,4.7186,4.7105,4.7103,4.7101,4.71,4.7064,4.7065,4.7066,0,0,0,0,0,0,0,0,0,0,0,0,0,4.7221,4.7221,4.7222,4.7222,4.7221,4.7187,4.7186,4.7186,4.7105,4.7103,4.7101,4.7099,4.7064,4.7065,4.7066,0,0,0,0,0,0,0,0,0,0,0,0,0,4.7207,4.7221,4.7222,4.7177,4.7172,4.7187,4.7186,4.7186,4.7105,4.7103,4.71,4.7098,4.7064,4.7065,4.7066,4.7122,0,0,4.7069,4.7069,0,0,0,0,0,0,0,0,4.7208,4.7207,4.7184,4.718,4.7175,4.7147,4.7173,4.7164,4.7106,4.7131,4.71,4.7097,4.7094,4.7092,4.7091,4.712,4.7119,4.7069,4.7069,4.707,4.707,0,0,0,0,0,0,0,4.7209,4.7208,4.7208,4.7184,4.7178,4.7158,4.7154,4.7171,4.7127,4.7129,4.7123,4.7119,4.7091,4.7091,4.709,4.7118,4.7069,4.7069,4.707,4.707,4.719,4.7192,0,0,0,0,0,0,4.7216,4.721,4.7209,4.7207,4.7186,4.716,4.7155,4.7159,4.7127,4.7119,4.7122,4.7116,4.709,4.7089,4.7088,4.715,4.707,4.7071,4.7071,4.7187,4.719,4.7193,0,0,0,0,0,0,4.7217,4.7217,4.7211,4.7207,4.7204,4.7163,4.7168,4.716,4.7159,4.7121,4.7113,4.7129,4.7088,4.7087,4.7114,4.7148,4.7071,4.7072,4.7184,4.7188,4.7192,4.7276,0,0,0,0,0,0,4.7217,4.7218,4.7239,4.7208,4.7205,4.7237,4.717,4.7161,4.716,4.7152,4.7126,4.7119,4.7086,4.7113,4.7115,4.7148,4.7073,4.7181,4.7186,4.719,4.727,4.7282,4.7293,0,0,0,0,0,4.7217,4.7264,4.724,4.724,4.723,4.7239,4.7237,4.7198,4.7164,4.7184,4.716,4.712,4.7144,4.7116,4.7118,4.7152,4.7178,4.7184,4.719,4.7265,4.728,4.7293,0,0,0,0,0,0,4.7301,4.7259,4.7232,4.7271,4.7259,4.7225,4.725,4.7215,4.7213,4.7206,4.7158,4.7152,4.7185,4.7171,4.7141,4.7203,4.7155,4.7161,4.7211,4.7225,4.7236,4.7238,4.7073,0,0,0,0,0,4.7324,4.7334,4.7298,4.7335,4.733,4.7292,4.7294,4.7264,4.725,4.7245,4.7223,4.7211,4.7216,4.722,4.7222,4.7268,4.726,4.7292,4.7304,4.7313,4.7319,4.7341,4.7354,4.7212,4.7212,4.7212,0,0,4.7371,4.735,4.7359,4.7351,4.7339,4.735,4.7288,4.7303,4.7311,4.7248,4.7271,4.7254,4.7238,4.7274,4.7289,4.7263,4.7357,4.7321,4.7329,4.7329,4.7348,4.7361,4.7373,4.7216,4.7216,4.7215,0,0,4.7463,4.7448,4.7477,4.7465,4.7447,4.7421,4.7428,4.7399,4.7386,4.7408,4.736,4.737,4.7379,4.7369,4.7365,4.7453,4.7416,4.7455,4.7514,4.7536,4.7547,4.7557,4.7587,4.7598,4.7461,4.7461,4.7462,0,4.7524,4.7539,4.7496,4.7514,4.7512,4.7454,4.7483,4.7474,4.7458,4.7457,4.7429,4.7439,4.7424,4.7456,4.7477,4.7477,4.7483,4.7457,4.7549,4.7558,4.7567,4.7595,4.7606,4.7466,4.7466,4.7465,4.7465,0,4.7614,4.7626,4.7651,4.7636,4.7637,4.766,4.7621,4.7626,4.7597,4.7574,4.7597,4.7577,4.7574,4.758,4.7552,4.7608,4.7592,4.7558,4.7507,4.7586,4.7611,4.7621,4.7473,4.7471,4.747,4.7469,0,0,4.7756,4.7717,4.7727,4.7719,4.7694,4.7702,4.7723,4.7719,4.7725,4.7716,4.7731,4.774,4.7708,4.7703,4.7674,4.7693,4.7762,4.7656,4.7654,4.7675,4.7821,4.7846,4.786,4.7738,4.774,4.7742,4.7822,0,4.7841,4.7873,4.7835,4.7876,4.7885,4.7831,4.7849,4.7836,4.7815,4.782,4.7797,4.7803,4.7761,4.7757,4.7774,4.775,4.7791,4.7744,4.7751,4.7752,4.7756,4.7873,4.79,4.7977,4.7832,4.7833,4.7835,0,4.7943,4.7938,4.7979,4.7951,4.7954,4.7971,4.7963,4.7969,4.7954,4.7937,4.7932,4.7896,4.7914,4.7867,4.7891,4.786,4.7861,4.785,4.7852,4.785,4.7797,4.7873,4.8,4.8012,4.785,4.7849,4.7848,0,4.8041,4.8044,4.8069,4.8064,4.8032,4.8045,4.8033,4.8014,4.8014,4.8009,4.8008,4.8005,4.8003,4.8002,4.7966,4.7935,4.7994,4.7944,4.798,4.7981,4.7994,4.7993,4.8122,4.7997,4.7997,4.7997,4.7996,0,4.8138,4.8165,4.8112,4.8127,4.8155,4.8112,4.8142,4.8124,4.8108,4.8118,4.8072,4.8083,4.8036,4.8042,4.8015,4.8038,4.8038,4.8025,4.8017,4.8028,4.8029,4.8027,4.802,4.8,4.7999,4.7998,4.7998,0,4.8251,4.8217,4.8239,4.8208,4.82,4.8223,4.8195,4.8208,4.8184,4.8198,4.8199,4.8161,4.8166,4.8131,4.8129,4.8111,4.8146,4.813,4.8152,4.8146,4.8184,4.818,4.8314,4.8329,4.8196,4.8198,4.8199,0,4.8314,4.8333,4.8303,4.8307,4.8296,4.8303,4.8302,4.8261,4.8262,4.8245,4.826,4.8261,4.8259,4.8269,4.8241,4.824,4.8222,4.8269,4.8222,4.8232,4.8221,4.822,4.8221,4.8279,4.828,4.8282,4.8283,0,4.8429,4.8411,4.8412,4.8407,4.8408,4.8402,4.8393,4.8399,4.8354,4.8358,4.8362,4.836,4.8358,4.8359,4.8352,4.8339,4.8304,4.8298,4.8306,4.8317,4.8328,4.8321,4.8177,4.8295,4.8294,4.8293,4.8292,4.8292,4.8518,4.8532,4.8513,4.8515,4.8504,4.8497,4.8507,4.8484,4.8487,4.8481,4.8457,4.8465,4.8448,4.8435,4.8426,4.8431,4.8409,4.8421,4.8423,4.8427,4.8433,4.8329,4.843,4.843,4.8429,4.8429,4.8429,0,4.863,4.8615,4.8617,4.8606,4.8608,4.8575,4.8563,4.8567,4.8574,4.8562,4.8561,4.8565,4.8566,4.8539,4.8536,4.8546,4.853,4.8547,4.8545,4.8542,4.8454,4.8447,4.856,4.856,4.856,4.856,4.856,4.856,4.8688,4.871,4.869,4.8706,4.869,4.8698,4.8694,4.8687,4.8676,4.8683,4.8683,4.8666,4.8647,4.8643,4.8642,4.8634,4.8635,4.8657,4.8644,4.8562,4.8549,4.8537,4.8529,4.8658,4.8658,4.8731,4.8732,4.8733]}]]